When you browse on this site, cookies collect data to enhance your experience and personalize the content and advertising you see.
Visit our Privacy Policy to learn more. By continuing to use the site, you agree to this use of cookies and data.
  • In Romania
  • List of Countries
  • For 7 days
  • Water Temperature
  • Weather Map
  • Weather Widgets
  • user-avatar
    Login

    Hourly Weather Knighton

    Today, 22 February, Saturday

    Time Temperature Precipitation Wind Pressure Humidity
    00:00 +6°C° 0 mm 11 mps 730 mmHg 84%
    01:00 +7°C° 1 mm 12 mps 729 mmHg 86%
    02:00 +7°C° 1 mm 12 mps 728 mmHg 87%
    03:00 +7°C° 1 mm 13 mps 727 mmHg 89%
    04:00 +7°C° 0.2 mm 13 mps 727 mmHg 88%
    05:00 +7°C° 0.2 mm 13 mps 728 mmHg 86%
    06:00 +7°C° 0.2 mm 13 mps 728 mmHg 84%
    07:00 +5°C° 0 mm 13 mps 729 mmHg 82%
    08:00 +4°C° 0 mm 13 mps 729 mmHg 81%
    09:00 +3°C° 0 mm 12 mps 730 mmHg 79%
    10:00 +4°C° 0.1 mm 12 mps 731 mmHg 76%
    11:00 +4°C° 0.1 mm 12 mps 731 mmHg 74%
    12:00 +4°C° 0.1 mm 12 mps 732 mmHg 72%
    13:00 +4°C° 0 mm 12 mps 732 mmHg 72%
    14:00 +3°C° 0 mm 12 mps 733 mmHg 72%
    15:00 +3°C° 0 mm 11 mps 733 mmHg 72%
    16:00 +3°C° 0 mm 10 mps 733 mmHg 74%
    17:00 +2°C° 0 mm 9 mps 733 mmHg 76%
    18:00 +2°C° 0 mm 8 mps 734 mmHg 78%
    19:00 +2°C° 0 mm 8 mps 734 mmHg 80%
    20:00 +2°C° 0 mm 8 mps 734 mmHg 82%
    21:00 +3°C° 0 mm 7 mps 734 mmHg 83%
    22:00 +3°C° 0.5 mm 7 mps 734 mmHg 86%
    23:00 +2°C° 0.5 mm 8 mps 734 mmHg 88%

    Tomorrow, 23 February, Sunday

    Time Temperature Precipitation Wind Pressure Humidity
    00:00 +2°C° 0.5 mm 8 mps 733 mmHg 90%
    01:00 +3°C° 1.6 mm 6 mps 732 mmHg 92%
    02:00 +3°C° 1.6 mm 5 mps 730 mmHg 94%
    03:00 +4°C° 1.6 mm 4 mps 729 mmHg 97%
    04:00 +5°C° 2 mm 7 mps 728 mmHg 94%
    05:00 +7°C° 2 mm 11 mps 727 mmHg 92%
    06:00 +8°C° 2 mm 14 mps 726 mmHg 89%
    07:00 +8°C° 0.6 mm 13 mps 727 mmHg 89%
    08:00 +7°C° 0.6 mm 12 mps 727 mmHg 88%
    09:00 +7°C° 0.6 mm 11 mps 728 mmHg 88%
    10:00 +6°C° 0.1 mm 10 mps 729 mmHg 85%
    11:00 +5°C° 0.1 mm 10 mps 731 mmHg 83%
    12:00 +3°C° 0.1 mm 9 mps 732 mmHg 81%
    13:00 +4°C° 0 mm 8 mps 733 mmHg 77%
    14:00 +3°C° 0 mm 7 mps 734 mmHg 73%
    15:00 +3°C° 0 mm 6 mps 734 mmHg 69%
    16:00 +2°C° 0 mm 5 mps 735 mmHg 74%
    17:00 +2°C° 0 mm 3 mps 736 mmHg 78%
    18:00 +2°C° 0 mm 2 mps 736 mmHg 83%
    19:00 +2°C° 0 mm 2 mps 736 mmHg 83%
    20:00 +3°C° 0 mm 1 mps 736 mmHg 83%
    21:00 +3°C° 0 mm 1 mps 736 mmHg 83%
    22:00 +2°C° 0 mm 2 mps 736 mmHg 82%
    23:00 +2°C° 0 mm 3 mps 735 mmHg 81%

    Day after tomorrow, 24 February, Monday

    Time Temperature Precipitation Wind Pressure Humidity
    00:00 +2°C° 0 mm 3 mps 735 mmHg 79%
    01:00 +1°C° 0.3 mm 4 mps 733 mmHg 84%
    02:00 +3°C° 0.3 mm 4 mps 732 mmHg 90%
    03:00 +2°C° 0.3 mm 5 mps 730 mmHg 95%
    04:00 +3°C° 0 mm 7 mps 729 mmHg 93%
    05:00 +3°C° 0 mm 9 mps 728 mmHg 91%
    06:00 +5°C° 0 mm 10 mps 726 mmHg 90%
    07:00 +6°C° 1 mm 11 mps 726 mmHg 90%
    08:00 +6°C° 1 mm 11 mps 725 mmHg 90%
    09:00 +7°C° 1 mm 11 mps 724 mmHg 91%
    10:00 +6°C° 0.5 mm 11 mps 724 mmHg 88%
    11:00 +5°C° 0.5 mm 12 mps 724 mmHg 86%
    12:00 +5°C° 0.5 mm 12 mps 724 mmHg 84%
    13:00 +4°C° 0 mm 12 mps 723 mmHg 81%
    14:00 +3°C° 0 mm 12 mps 723 mmHg 79%
    15:00 +2°C° 0 mm 12 mps 723 mmHg 77%
    16:00 +2°C° 0 mm 11 mps 724 mmHg 76%
    17:00 +1°C° 0 mm 11 mps 724 mmHg 76%
    18:00 +1°C° 0 mm 10 mps 724 mmHg 75%
    19:00 0°C° 0 mm 10 mps 724 mmHg 75%
    20:00 0°C° 0 mm 9 mps 724 mmHg 75%
    21:00 0°C° 0 mm 9 mps 725 mmHg 75%
    22:00 -1°C° 0 mm 9 mps 724 mmHg 76%
    23:00 -1°C° 0 mm 9 mps 724 mmHg 76%

    25 February, Tuesday

    Time Temperature Precipitation Wind Pressure Humidity
    00:00 -1°C° 0 mm 9 mps 724 mmHg 76%
    01:00 -1°C° 0 mm 9 mps 724 mmHg 76%
    02:00 -1°C° 0 mm 8 mps 723 mmHg 76%
    03:00 -2°C° 0 mm 8 mps 723 mmHg 77%
    04:00 -2°C° 0 mm 8 mps 723 mmHg 78%
    05:00 -2°C° 0 mm 7 mps 723 mmHg 79%
    06:00 -2°C° 0 mm 7 mps 723 mmHg 80%
    07:00 -1°C° 0 mm 7 mps 723 mmHg 78%
    08:00 -1°C° 0 mm 8 mps 723 mmHg 76%
    09:00 -1°C° 0 mm 8 mps 723 mmHg 74%
    10:00 0°C° 0 mm 8 mps 722 mmHg 71%
    11:00 +1°C° 0 mm 8 mps 722 mmHg 69%
    12:00 +2°C° 0 mm 8 mps 722 mmHg 67%
    13:00 +1°C° 0.1 mm 8 mps 721 mmHg 67%
    14:00 +2°C° 0.1 mm 7 mps 721 mmHg 67%
    15:00 +2°C° 0.1 mm 7 mps 720 mmHg 67%
    16:00 0°C° 0.5 mm 7 mps 719 mmHg 76%
    17:00 -1°C° 0.5 mm 7 mps 719 mmHg 84%
    18:00 -2°C° 0.5 mm 7 mps 719 mmHg 92%
    19:00 -3°C° 0.1 mm 7 mps 719 mmHg 88%
    20:00 -3°C° 0.1 mm 7 mps 719 mmHg 84%
    21:00 -3°C° 0.1 mm 7 mps 719 mmHg 80%
    22:00 -4°C° 0 mm 7 mps 719 mmHg 80%
    23:00 -4°C° 0 mm 7 mps 720 mmHg 81%

    26 February, Wednesday

    Time Temperature Precipitation Wind Pressure Humidity
    00:00 -4°C° 0 mm 7 mps 720 mmHg 81%
    01:00 -4°C° 0.1 mm 7 mps 720 mmHg 82%
    02:00 -4°C° 0.1 mm 7 mps 721 mmHg 83%
    03:00 -5°C° 0.1 mm 8 mps 721 mmHg 85%
    04:00 -4°C° 0 mm 7 mps 722 mmHg 85%
    05:00 -4°C° 0 mm 7 mps 722 mmHg 85%
    06:00 -4°C° 0 mm 7 mps 723 mmHg 85%
    07:00 -4°C° 0 mm 8 mps 724 mmHg 81%
    08:00 -2°C° 0 mm 8 mps 725 mmHg 77%
    09:00 -1°C° 0 mm 8 mps 726 mmHg 73%
    10:00 -1°C° 0 mm 9 mps 726 mmHg 71%
    11:00 0°C° 0 mm 9 mps 727 mmHg 69%
    12:00 0°C° 0 mm 9 mps 728 mmHg 66%
    13:00 0°C° 0 mm 9 mps 728 mmHg 66%
    14:00 0°C° 0 mm 9 mps 728 mmHg 65%
    15:00 0°C° 0 mm 8 mps 729 mmHg 64%
    16:00 -1°C° 0 mm 7 mps 729 mmHg 69%
    17:00 -2°C° 0 mm 6 mps 729 mmHg 74%
    18:00 -2°C° 0 mm 4 mps 729 mmHg 79%
    19:00 -2°C° 0 mm 4 mps 729 mmHg 80%
    20:00 -1°C° 0 mm 3 mps 729 mmHg 82%
    21:00 -1°C° 0 mm 3 mps 729 mmHg 83%
    22:00 -1°C° 0 mm 3 mps 728 mmHg 84%
    23:00 -1°C° 0 mm 3 mps 728 mmHg 85%

    27 February, Thursday

    Time Temperature Precipitation Wind Pressure Humidity
    00:00 0°C° 0 mm 3 mps 727 mmHg 86%
    01:00 -2°C° 1.1 mm 5 mps 725 mmHg 90%
    02:00 -3°C° 1.1 mm 6 mps 723 mmHg 94%
    03:00 -5°C° 1.1 mm 8 mps 721 mmHg 98%
    04:00 -3°C° 2.2 mm 6 mps 720 mmHg 98%
    05:00 -2°C° 2.2 mm 5 mps 718 mmHg 99%
    06:00 0°C° 2.2 mm 3 mps 717 mmHg 99%
    07:00 0°C° 1.2 mm 5 mps 717 mmHg 99%
    08:00 +2°C° 1.2 mm 6 mps 716 mmHg 99%
    09:00 +4°C° 1.2 mm 8 mps 716 mmHg 99%
    10:00 +5°C° 0 mm 9 mps 716 mmHg 96%
    11:00 +6°C° 0 mm 9 mps 717 mmHg 94%
    12:00 +7°C° 0 mm 10 mps 717 mmHg 91%
    13:00 +6°C° 0 mm 10 mps 717 mmHg 89%
    14:00 +6°C° 0 mm 10 mps 718 mmHg 88%
    15:00 +6°C° 0 mm 10 mps 718 mmHg 87%
    16:00 +5°C° 0 mm 9 mps 719 mmHg 87%
    17:00 +4°C° 0 mm 8 mps 719 mmHg 88%
    18:00 +2°C° 0 mm 8 mps 720 mmHg 88%
    19:00 +3°C° 0 mm 7 mps 720 mmHg 88%
    20:00 +2°C° 0 mm 7 mps 721 mmHg 87%
    21:00 +2°C° 0 mm 6 mps 722 mmHg 87%
    22:00 +1°C° 0 mm 6 mps 722 mmHg 87%
    23:00 +1°C° 0 mm 5 mps 722 mmHg 88%
    Show more